| time (UTC) | temp F | wind direction | speed MPH | gust MPH | rain 1hr in | rain 24hr in | rain mn in | humidity % | barometer mb |
| 20260831123043 | 70 | 53 | 0.0 | 0.0 | 0.00 | 0.00 | 0.00 | 29 | 1019.7 |
| 20260831122027 | 69 | 53 | 0.0 | 0.0 | 0.00 | 0.00 | 0.00 | 37 | 1019.7 |
| 20260831121010 | 69 | 53 | 0.0 | 0.0 | 0.00 | 0.00 | 0.00 | 39 | 1019.7 |
| 20260831120014 | 69 | 53 | 0.0 | 0.0 | 0.00 | 0.00 | 0.00 | 37 | 1019.8 |
| 20260831115009 | 69 | 53 | 0.0 | 0.0 | 0.00 | 0.00 | 0.00 | 36 | 1019.6 |
| 20260831114033 | 69 | 53 | 0.0 | 0.0 | 0.00 | 0.00 | 0.00 | 37 | 1019.6 |
| 20260831113051 | 69 | 53 | 0.0 | 0.0 | 0.00 | 0.00 | 0.00 | 39 | 1019.5 |
| 20260831112046 | 69 | 53 | 0.0 | 0.0 | 0.00 | 0.00 | 0.00 | 41 | 1019.4 |
| 20260831111059 | 69 | 53 | 0.0 | 0.0 | 0.00 | 0.00 | 0.00 | 39 | 1019.4 |
| 20260831110112 | 69 | 53 | 0.0 | 0.0 | 0.00 | 0.00 | 0.00 | 35 | 1019.2 |
| 20260831105043 | 68 | 53 | 0.0 | 0.0 | 0.00 | 0.00 | 0.00 | 37 | 1019.2 |
| 20260831104040 | 68 | 53 | 0.0 | 0.0 | 0.00 | 0.00 | 0.00 | 33 | 1019.1 |
| 20260831103020 | 67 | 53 | 0.0 | 0.0 | 0.00 | 0.00 | 0.00 | 33 | 1019.0 |
| 20260831102033 | 67 | 53 | 0.0 | 0.0 | 0.00 | 0.00 | 0.00 | 38 | 1018.9 |
| 20260831101013 | 67 | 53 | 0.0 | 0.0 | 0.00 | 0.00 | 0.00 | 43 | 1018.8 |
| 20260831094820 | 67 | 16 | 0.0 | 0.0 | 0.00 | 0.00 | 0.00 | 50 | 1018.9 |
| 20260831093823 | 67 | 16 | 0.0 | 0.0 | 0.00 | 0.00 | 0.00 | 52 | 1018.9 |
| 20260831092813 | 67 | 16 | 0.0 | 0.0 | 0.00 | 0.00 | 0.00 | 55 | 1018.9 |
| 20260831091819 | 68 | 16 | 0.0 | 0.0 | 0.00 | 0.00 | 0.00 | 56 | 1018.9 |
| 20260831090758 | 68 | 16 | 0.0 | 0.0 | 0.00 | 0.00 | 0.00 | 58 | 1018.8 |
| 20260831085733 | 68 | 15 | 0.0 | 0.0 | 0.00 | 0.00 | 0.00 | 60 | 1018.9 |
| 20260831083629 | 68 | 16 | 0.0 | 0.0 | 0.00 | 0.00 | 0.00 | 62 | 1018.8 |
| 20260831082600 | 68 | 16 | 0.0 | 0.0 | 0.00 | 0.00 | 0.00 | 62 | 1018.9 |
| 20260831081615 | 68 | 16 | 0.0 | 0.0 | 0.00 | 0.00 | 0.00 | 66 | 1018.9 |
| 20260831080557 | 68 | 16 | 0.0 | 0.0 | 0.00 | 0.00 | 0.00 | 66 | 1018.9 |
| 20260831074520 | 69 | 16 | 0.0 | 0.0 | 0.00 | 0.00 | 0.00 | 69 | 1018.9 |
| 20260831073534 | 69 | 16 | 0.0 | 0.0 | 0.00 | 0.00 | 0.00 | 69 | 1018.8 |
| 20260831072549 | 70 | 16 | 0.0 | 0.0 | 0.00 | 0.00 | 0.00 | 71 | 1018.9 |
| 20260831071608 | 70 | 16 | 0.0 | 0.0 | 0.00 | 0.00 | 0.00 | 73 | 1019.0 |
| 20260831070559 | 70 | 16 | 0.0 | 0.0 | 0.00 | 0.00 | 0.00 | 74 | 1019.0 |
| 20260831065528 | 70 | 16 | 0.0 | 0.0 | 0.00 | 0.00 | 0.00 | 74 | 1019.0 |
| 20260831064500 | 70 | 16 | 0.0 | 0.0 | 0.00 | 0.00 | 0.00 | 75 | 1019.2 |
| 20260831063518 | 70 | 16 | 0.0 | 0.0 | 0.00 | 0.00 | 0.00 | 75 | 1019.3 |
| 20260831061442 | 71 | 16 | 0.0 | 0.0 | 0.00 | 0.00 | 0.00 | 75 | 1019.3 |
| 20260831060457 | 71 | 164 | 0.0 | 0.0 | 0.00 | 0.00 | 0.00 | 75 | 1019.4 |
| 20260831054422 | 71 | 165 | 0.0 | 0.0 | 0.00 | 0.00 | 0.00 | 75 | 1019.6 |
| 20260831052230 | 71 | 164 | 0.0 | 0.0 | 0.00 | 0.00 | 0.00 | 75 | 1019.8 |
| 20260831051226 | 71 | 160 | 0.0 | 0.0 | 0.00 | 0.00 | 0.00 | 75 | 1019.9 |
| 20260831050157 | 71 | 158 | 0.0 | 0.0 | 0.00 | 0.00 | 0.00 | 75 | 1019.9 |
| 20260831044013 | 71 | 158 | 0.0 | 0.0 | 0.00 | 0.00 | 0.00 | 75 | 1020.1 |
| 20260831043029 | 71 | 196 | 0.0 | 0.0 | 0.00 | 0.00 | 0.00 | 74 | 1020.1 |
| 20260831041956 | 71 | 195 | 0.0 | 0.0 | 0.00 | 0.00 | 0.00 | 74 | 1020.1 |
| 20260831035950 | 71 | 123 | 0.0 | 0.0 | 0.00 | 0.00 | 0.00 | 70 | 1020.2 |
| 20260831034916 | 71 | 123 | 0.0 | 0.0 | 0.00 | 0.00 | 0.00 | 68 | 1020.3 |
| 20260831033909 | 72 | 123 | 0.0 | 0.0 | 0.00 | 0.00 | 0.00 | 66 | 1020.4 |
| 20260831032913 | 72 | 123 | 0.0 | 0.0 | 0.00 | 0.00 | 0.00 | 65 | 1020.4 |
| 20260831031904 | 72 | 123 | 0.0 | 0.0 | 0.00 | 0.00 | 0.00 | 64 | 1020.4 |
| 20260831030844 | 72 | 124 | 0.0 | 0.0 | 0.00 | 0.00 | 0.00 | 64 | 1020.5 |
| 20260831025857 | 73 | 124 | 0.0 | 0.0 | 0.00 | 0.00 | 0.00 | 65 | 1020.5 |
| 20260831024834 | 73 | 169 | 0.0 | 0.0 | 0.00 | 0.00 | 0.00 | 68 | 1020.3 |
| 20260831023818 | 73 | 169 | 0.0 | 0.0 | 0.00 | 0.00 | 0.00 | 66 | 1020.3 |
| 20260831021648 | 73 | 169 | 0.0 | 0.0 | 0.00 | 0.00 | 0.00 | 69 | 1020.2 |
| 20260831020623 | 73 | 169 | 0.0 | 0.0 | 0.00 | 0.00 | 0.00 | 71 | 1020.2 |
| 20260831015605 | 74 | 169 | 0.0 | 0.0 | 0.00 | 0.00 | 0.00 | 72 | 1020.2 |
| 20260831014627 | 74 | 169 | 0.0 | 0.0 | 0.00 | 0.00 | 0.00 | 73 | 1019.9 |
| 20260831012533 | 74 | 169 | 0.0 | 0.0 | 0.00 | 0.00 | 0.00 | 75 | 1019.9 |
| 20260831011536 | 75 | 169 | 0.0 | 0.0 | 0.00 | 0.00 | 0.00 | 75 | 1019.8 |
| 20260831010509 | 75 | 169 | 0.0 | 0.0 | 0.00 | 0.00 | 0.00 | 75 | 1019.6 |
| 20260831005443 | 75 | 169 | 0.0 | 0.0 | 0.00 | 0.00 | 0.00 | 75 | 1019.5 |
| 20260831004440 | 76 | 169 | 0.0 | 0.0 | 0.00 | 0.00 | 0.00 | 76 | 1019.3 |
| 20260831003454 | 76 | 169 | 0.0 | 0.0 | 0.00 | 0.00 | 0.00 | 75 | 1019.2 |
| 20260831002510 | 76 | 169 | 0.0 | 0.0 | 0.00 | 0.00 | 0.00 | 75 | 1019.1 |
| 20260831001512 | 76 | 169 | 0.0 | 0.0 | 0.00 | 0.00 | 0.00 | 75 | 1019.0 |
| 20260831000458 | 77 | 169 | 0.0 | 0.0 | 0.00 | 0.00 | 0.00 | 75 | 1018.9 |
| 20260830235439 | 77 | 169 | 0.0 | 0.0 | 0.00 | 0.00 | 0.00 | 74 | 1018.6 |
| 20260830234446 | 77 | 165 | 0.0 | 0.0 | 0.00 | 0.00 | 0.00 | 75 | 1018.7 |
| 20260830233508 | 78 | 126 | 0.0 | 0.0 | 0.00 | 0.00 | 0.00 | 75 | 1018.7 |
| 20260830232530 | 78 | 126 | 0.0 | 0.0 | 0.00 | 0.00 | 0.00 | 75 | 1018.8 |
| 20260830231516 | 79 | 126 | 0.0 | 0.0 | 0.00 | 0.00 | 0.00 | 76 | 1018.6 |
| 20260830230528 | 79 | 126 | 0.0 | 0.0 | 0.00 | 0.00 | 0.00 | 73 | 1018.4 |
| 20260830225513 | 80 | 126 | 0.0 | 0.0 | 0.00 | 0.00 | 0.00 | 72 | 1018.3 |
| 20260830224506 | 80 | 126 | 0.0 | 0.0 | 0.00 | 0.00 | 0.00 | 72 | 1018.4 |
| 20260830223513 | 80 | 126 | 0.0 | 1.0 | 0.00 | 0.00 | 0.00 | 70 | 1018.5 |
| 20260830221348 | 81 | 120 | 0.0 | 0.0 | 0.00 | 0.00 | 0.00 | 68 | 1018.5 |
| 20260830220318 | 81 | 120 | 0.0 | 0.0 | 0.00 | 0.00 | 0.00 | 67 | 1018.6 |
| 20260830215246 | 82 | 120 | 0.0 | 0.0 | 0.00 | 0.00 | 0.00 | 67 | 1018.6 |
| 20260830214228 | 82 | 120 | 0.0 | 0.0 | 0.00 | 0.00 | 0.00 | 65 | 1018.6 |
| 20260830212103 | 82 | 122 | 0.0 | 1.0 | 0.00 | 0.00 | 0.00 | 65 | 1018.5 |
| 20260830211031 | 82 | 115 | 0.0 | 3.0 | 0.00 | 0.00 | 0.00 | 63 | 1018.6 |
| 20260830210005 | 83 | 124 | 0.0 | 3.0 | 0.00 | 0.00 | 0.00 | 63 | 1018.6 |
| 20260830204938 | 83 | 121 | 0.0 | 2.0 | 0.00 | 0.00 | 0.00 | 62 | 1018.7 |
| 20260830203912 | 83 | 123 | 0.0 | 2.0 | 0.00 | 0.00 | 0.00 | 62 | 1018.7 |
| 20260830202919 | 82 | 111 | 0.0 | 5.0 | 0.00 | 0.00 | 0.00 | 62 | 1018.9 |
| 20260830201920 | 82 | 115 | 1.0 | 5.0 | 0.00 | 0.00 | 0.00 | 63 | 1019.0 |
| 20260830200853 | 83 | 119 | 0.0 | 2.0 | 0.00 | 0.00 | 0.00 | 62 | 1019.0 |
| 20260830195909 | 83 | 111 | 0.0 | 1.0 | 0.00 | 0.00 | 0.00 | 63 | 1018.9 |
| 20260830193711 | 82 | 111 | 0.0 | 0.0 | 0.00 | 0.00 | 0.00 | 62 | 1019.2 |
| 20260830191546 | 83 | 102 | 0.0 | 4.0 | 0.00 | 0.00 | 0.00 | 60 | 1019.5 |
| 20260830190549 | 83 | 98 | 0.0 | 4.0 | 0.00 | 0.00 | 0.00 | 62 | 1019.6 |
| 20260830185608 | 83 | 120 | 1.0 | 4.0 | 0.00 | 0.00 | 0.00 | 64 | 1019.7 |
| 20260830184618 | 82 | 110 | 0.0 | 3.0 | 0.00 | 0.00 | 0.00 | 65 | 1019.9 |
| 20260830183608 | 82 | 100 | 0.0 | 0.0 | 0.00 | 0.00 | 0.00 | 63 | 1019.9 |
| 20260830182611 | 82 | 117 | 0.0 | 3.0 | 0.00 | 0.00 | 0.00 | 66 | 1020.1 |
| 20260830181556 | 82 | 115 | 0.0 | 3.0 | 0.00 | 0.00 | 0.00 | 67 | 1020.2 |
| 20260830180552 | 82 | 120 | 1.0 | 3.0 | 0.00 | 0.00 | 0.00 | 65 | 1020.3 |
| 20260830175550 | 82 | 102 | 1.0 | 3.0 | 0.00 | 0.00 | 0.00 | 65 | 1020.3 |
| 20260830174608 | 81 | 67 | 0.0 | 3.0 | 0.00 | 0.00 | 0.00 | 69 | 1020.6 |
| 20260830173539 | 81 | 98 | 0.0 | 2.0 | 0.00 | 0.00 | 0.00 | 67 | 1020.7 |
| 20260830172521 | 81 | 110 | 0.0 | 3.0 | 0.00 | 0.00 | 0.00 | 70 | 1020.8 |
| 20260830171502 | 81 | 44 | 1.0 | 4.0 | 0.00 | 0.00 | 0.00 | 70 | 1020.9 |
| 20260830165402 | 81 | 94 | 0.0 | 5.0 | 0.00 | 0.00 | 0.00 | 71 | 1021.0 |
| 20260830164357 | 80 | 101 | 2.0 | 4.0 | 0.00 | 0.00 | 0.00 | 72 | 1021.1 |
| 20260830163357 | 80 | 102 | 1.0 | 4.0 | 0.00 | 0.00 | 0.00 | 74 | 1021.1 |
| 20260830162408 | 80 | 103 | 0.0 | 2.0 | 0.00 | 0.00 | 0.00 | 73 | 1021.0 |
| 20260830161335 | 81 | 95 | 0.0 | 3.0 | 0.00 | 0.00 | 0.00 | 71 | 1021.0 |
| 20260830160321 | 80 | 123 | 0.0 | 3.0 | 0.00 | 0.00 | 0.00 | 73 | 1021.0 |
| 20260830155343 | 80 | 51 | 0.0 | 2.0 | 0.00 | 0.00 | 0.00 | 73 | 1021.1 |
| 20260830154349 | 79 | 98 | 0.0 | 2.0 | 0.00 | 0.00 | 0.00 | 74 | 1021.2 |
| 20260830153405 | 77 | 108 | 0.0 | 3.0 | 0.00 | 0.00 | 0.00 | 75 | 1021.2 |
| 20260830152337 | 77 | 119 | 0.0 | 3.0 | 0.00 | 0.00 | 0.00 | 75 | 1021.2 |
| 20260830151312 | 77 | 82 | 0.0 | 3.0 | 0.00 | 0.00 | 0.00 | 75 | 1021.0 |
| 20260830150302 | 77 | 113 | 0.0 | 4.0 | 0.00 | 0.00 | 0.00 | 75 | 1021.0 |
| 20260830145320 | 77 | 99 | 1.0 | 5.0 | 0.00 | 0.00 | 0.00 | 75 | 1021.0 |
| 20260830144343 | 77 | 51 | 2.0 | 5.0 | 0.00 | 0.00 | 0.00 | 74 | 1021.0 |
| 20260830143327 | 75 | 101 | 0.0 | 2.0 | 0.00 | 0.00 | 0.00 | 74 | 1021.0 |
| 20260830142328 | 75 | 49 | 1.0 | 4.0 | 0.00 | 0.00 | 0.00 | 74 | 1020.9 |
| 20260830141305 | 74 | 39 | 0.0 | 3.0 | 0.00 | 0.00 | 0.00 | 74 | 1020.8 |
| 20260830135136 | 73 | 49 | 0.0 | 0.0 | 0.00 | 0.00 | 0.00 | 73 | 1020.8 |
| 20260830134159 | 73 | 60 | 0.0 | 0.0 | 0.00 | 0.00 | 0.00 | 73 | 1020.8 |
| 20260830133200 | 72 | 41 | 0.0 | 0.0 | 0.00 | 0.00 | 0.00 | 71 | 1020.7 |
| 20260830132150 | 71 | 56 | 0.0 | 0.0 | 0.00 | 0.00 | 0.00 | 69 | 1020.7 |
| 20260830131141 | 71 | 54 | 0.0 | 0.0 | 0.00 | 0.00 | 0.00 | 65 | 1020.7 |
| 20260830130131 | 70 | 51 | 0.0 | 0.0 | 0.00 | 0.00 | 0.00 | 62 | 1020.8 |
| 20260830125124 | 69 | 57 | 0.0 | 0.0 | 0.00 | 0.00 | 0.00 | 58 | 1020.8 |